Orbital Elements at Epoch 2459000.5 (2020-May-31.0) TDB
Reference: JPL 21 (heliocentric ecliptic J2000)
Element | Value | Uncertainty (1-sigma) | Units |
e | .335766411724419 | 6.6835e-08 | |
a | 2.585014711116619 | 2.1163e-08 | au |
q | 1.717053597310156 | 1.8299e-07 | au |
i | 4.360737245310088 | 5.9694e-06 | deg |
node | 168.945237225621 | 5.7294e-05 | deg |
peri | 219.6726298719807 | 5.8175e-05 | deg |
M | 125.1143156298969 | 9.6144e-06 | deg |
tp | 2458472.908901848963 (2018-Dec-20.40890185) | 3.58e-05 | TDB |
period | 1518.074045948645 4.16 | 1.8642e-05 5.104e-08 | d yr |
n | .2371425827091563 | 2.9122e-09 | deg/d |
Q | 3.452975824923082 | 2.8269e-08 | au |
|
| | Orbit Determination Parameters
Additional Information
|